Regional Weather Roundup
Issued by NWS

Home | Current Version | Previous Version | Graphics & Text | Print | Product List | Glossary On
Versions: 1 2 3 4 5 6 7 8 9 10 11 12 13 14 15 16 17 18 19 20 21 22 23 24 25 26 27 28 29 30 31 32 33 34 35 36 37 38 39 40 41 42 43 44 45 46 47 48 49 50
000
ASUS43 KBIS 021820
RWRND

NORTH DAKOTA REGIONAL WEATHER ROUNDUP
NATIONAL WEATHER SERVICE BISMARCK ND
1200 PM CST MON MAR 02 2015

NOTE: "FAIR" INDICATES FEW OR NO CLOUDS BELOW 12,000 FEET WITH NO
SIGNIFICANT WEATHER AND/OR OBSTRUCTIONS TO VISIBILITY.


NDZ001>003-009>011-017-021900-
NORTHWEST NORTH DAKOTA

CITY           SKY/WX    TMP DP  RH WIND       PRES   REMARKS
WILLISTON      SUNNY     31  14  49 S14G20    29.81F
6HR MIN TEMP:  11; 6HR MAX TEMP:  31;

MINOT          SUNNY     23  13  65 S24G35    29.89F WCI   7
MINOT AFB      SUNNY     23  16  75 S21       29.89F WCI   8
$$

NDZ018>021-031>035-040>046-021900-
SOUTHWEST NORTH DAKOTA

CITY           SKY/WX    TMP DP  RH WIND       PRES   REMARKS
BISMARCK       SUNNY     31  15  52 S18       29.96F WCI  19
6HR MIN TEMP:   4; 6HR MAX TEMP:  31;

DICKINSON      SUNNY     32  15  49 S15       29.80F
GARRISON         N/A     27  15  61 S20G25    29.90F WCI  13
6HR MIN TEMP:   1; 6HR MAX TEMP:  27; 6HR PCP:  0.01;

HETTINGER ARPT SUNNY     31  13  47 S13G20    29.86F
$$

NDZ004>008-012>016-024-026-027-054-021900-
NORTHEAST NORTH DAKOTA

CITY           SKY/WX    TMP DP  RH WIND       PRES   REMARKS
GRAND FORKS    PTSUNNY   20  12  71 S15       30.20F WCI   6
GRND FRKS AFB  SUNNY     28  12  51 S21G28    30.17F WCI  14
DEVILS LAKE    SUNNY     25  16  68 S22G29    30.04F WCI  10
$$

NDZ022-023-025-028>030-036>039-047>053-021900-
SOUTHEAST NORTH DAKOTA

CITY           SKY/WX    TMP DP  RH WIND       PRES   REMARKS
FARGO          SUNNY     28  10  46 S21       30.24F WCI  15
6HR MIN TEMP:   1; 6HR MAX TEMP:  28;

JAMESTOWN      SUNNY     23  14  68 S25G31    30.10F WCI   7
$$




USA.gov is the U.S. government's official web portal to all federal, state and local government web resources and services.